Location: Cambridge
(43.3830°N, 80.3170°W)
Time: 16:57:40
(UTC-04:00)

N. Korean satellite - Visible Passes

Search period start: 15 October 2019 00:00
Search period end: 25 October 2019 00:00
Orbit: 455 x 508 km, 97.2° (Epoch: 14 October)

Date Brightness Start Highest point End Pass type
(mag) Time Alt. Az. Time Alt. Az. Time Alt. Az.
15 Oct 10.6 06:08:48 10° E 06:09:17 10° E 06:09:46 10° E visible
16 Oct 10.0 19:25:21 10° SW 19:27:31 16° W 19:29:42 10° NW visible
17 Oct 8.6 06:49:05 10° NNE 06:52:23 33° E 06:55:41 10° SSE visible
17 Oct 8.7 18:58:59 10° SSW 19:02:04 32° W 19:05:12 10° NNW visible
18 Oct 9.9 06:24:32 10° NE 06:26:57 17° E 06:29:23 10° SE visible
20 Oct 7.4 07:06:20 10° NNE 07:09:55 57° E 07:13:31 10° S visible
20 Oct 9.7 19:17:05 10° SW 19:19:38 19° W 19:22:13 10° NW visible
21 Oct 9.1 06:41:24 10° NE 06:44:33 27° E 06:47:43 10° SSE visible
22 Oct 10.2 06:17:05 10° ENE 06:19:05 14° E 06:21:05 10° SE visible
23 Oct 10.2 19:35:49 10° WSW 19:37:14 12° W 19:38:39 10° WNW visible
24 Oct 7.9 06:58:33 10° NNE 07:02:05 45° E 07:05:38 10° S visible
24 Oct 9.3 19:08:53 10° SSW 19:11:43 24° W 19:14:37 10° NW visible
